Location: Carrières
(48.9495°N, 2.0407°E)
Time: 12:05:40
(UTC+00:00)

Transit 2A Rocket - Pass Details

Date: 26 April 2024
Orbit: 584 x 909 km, 66.7° (Epoch: 25 May)

Event Time Altitude Azimuth Distance (km) Brightness Sun altitude
Rises 15:48:33 0° 323° (NW) 3,202 8.5 30.1°
Reaches altitude 10° 15:51:48 10° 344° (NNW) 2,344 7.6 29.6°
Maximum altitude 15:55:11 17° 23° (NNE) 1,989 7.0 29.0°
Drops below altitude 10° 15:58:44 10° 62° (ENE) 2,470 7.2 28.5°
Sets 16:02:16 0° 83° (E) 3,458 7.8 27.9°
